STARLINK-36301, 67932

Orbit data source: Space-Track

STARLINK-36301, 67932 is a payload satellite owned by SpaceX/Seattle (US) in LEO that was launched on Tue, 24 Feb 2026 UTC via an FALCON 9 launch vehicle from the Air Force Eastern Test Range (AFETR). Payload-class satellites include a variety of spacecraft equipped with specific instruments for various scientific and technological missions. These include communications satellites like Starlink; space stations such as the ISS; scientific satellites like the Hubble; Earth observation satellites from companies like Planet Labs, Umbra, and HawkEye 360; GPS; miniature CubeSats for education and research; and military/defense satellites.

Loading next visibility...
Identifier
67932, 2026-037A
Orbit
LEO
Country
Flag of USUS
Related business
Manufacturer
SpaceX/Seattle
Mission
Operational Commercial Communications
Bus & Motor
STARLINK V2MO, Unknown motor
Mass
575 kg wet, ~530 kg dry
Launch date (UTC)
2026-02-24 (4 months ago)
Launch vehicle
FALCON 9
Launch site
Air Force Eastern Test Range (AFETR)
Object type
Payload
Rocket body
Debris
Shape & HBR
Box + 2 Pan, 17.7 m
Radar Cross Section
36.964 m², Large (>1 m²)

Expand to show TLE details & history
Last TLE update: 9 hours ago

TLE from 9 hours ago
0 STARLINK-36301
1 67932U 26037A   26171.46312633  .00013972  00000-0  51613-3 0  9991
2 67932  43.0029 330.7424 0000425 199.2048 160.8788 15.27590798 19050
Epoch: 2026-06-20T11:06Z
TLE epoch observation values (Epoch: 2026-06-20T11:06:54.114Z)
Latitude
-0.00002°
Longitude
-104.66049°
Altitude
483.068 km
Speed
7.626 km/s
True Right ascension
22h 02m 58s
True Declination
0° 00' 00"
Sunlit
Object was in full shadow at epoch
Visualization orbit readout
Latitude
Unknown
Longitude
Unknown
Altitude
Unknown
Speed
Unknown
Apparent Right ascension
Unknown
Apparent Declination
Unknown
Sunlit
N/A
Visualization observer readout
Local Sidereal Time
07:12:41
Azimuth
Unknown
Elevation
Unknown
Doppler factor
Unknown
Orbital elements
Apogee altitude
485.253 km
Perigee altitude
484.67 km
Semi-major axis
6,863.098 km
Eccentricity
0.00004
Inclination
43.0029°
RAAN
330.7424°
Arg. of periapsis
199.2048°
True anomaly
160.8804°
Mean anomaly
160.8788°
Eccentric anomaly
160.8796°
Mean motion
3.81736 °/min
Orbital period
94.31 mins
BSTAR
0.00051613
Loading maneuver chart data...
Computing Atmospheric mass density...
Loading historical data...
Loading historical data...
Loading historical data...
Loading historical data...
Loading historical data...
Loading historical data...
Loading historical data...

Documentation

Showing up to 5 results
|